Weather in Byron Bay

Australia     28°38′35″S   153°36′43″E
temp.,
°C
wind,
m/s
gust,
m/s
humid.,
%
clouds,
%
prec.,
mm/h
press.,
hPa
HPBL,
m
19 april, mon
mon1901:00+12wsw269949 0.0 1018137
04:00+11wsw259934 0.0 1018113
07:00+12wsw26920 0.0 1019164
10:00+20ssw24620 0.0 1019733
13:00+22sse225512 0.0 10161408
16:00+20se23680 0.0 1016522
19:00+15n11880 0.0 101714
22:00+13nnw11967 0.0 101816
20 april, tue
tue2001:00+13wnw11973 0.0 101816
04:00+12wnw11982 0.0 101714
07:00+13wnw11930 0.0 101839
10:00+23wnw13540 0.0 1018846
13:00+25wsw13390 0.0 10151688
16:00+23ene23590 0.0 1013140
19:00+16nnw22790 0.0 101542
22:00+14nw23840 0.0 101648
21 april, wed
wed2101:00+14nnw11870 0.0 101422
04:00+13wnw11969 0.0 101315
07:00+15w12910 0.0 101454
10:00+23ne13565 0.0 1013683
13:00+26w29451 0.0 10102031
16:00+25wnw28500 0.0 1010722
19:00+17w25780 0.0 1013101
22:00+14w27630 0.0 101497
22 april, thu
thu2201:00+12w24645 0.0 101373
04:00+11wsw23690 0.0 101345
07:00+11w12706 0.0 101449
10:00+21w364155 0.0 1014812
13:00+23w3936100 0.0 10111454
16:00+20wsw1460100 0.0 1011152
19:00+17wnw311525 0.0 1012288
22:00+14w31053100 0.0 1015259
23 april, fri
fri2301:00+11w2761100 0.0 1015124
04:00+10wsw2468100 0.0 101571
07:00+10sw2571100 0.0 1016111
10:00+17sw2453100 0.0 1018484
13:00+20sse2248100 0.0 10161516
16:00+18sse2464100 0.0 1016252
19:00+15sw1172100 0.0 101814
22:00+13wnw1175100 0.0 102017